Location: North Evanston
(42.0634°N, 87.6976°W)
Time: 02:08:16
(UTC+00:00)

S-56A Canister/Altair - Visible Passes

Search period start: 14 May 2026 00:00
Search period end: 24 May 2026 00:00
Orbit: 633 x 2484 km, 38.9° (Epoch: 13 May)

Date Brightness Start Highest point End Pass type
(mag) Time Alt. Az. Time Alt. Az. Time Alt. Az.
14 May 7.5 02:58:19 10° SW 03:02:28 40° SSE 03:02:55 39° SE visible
14 May 10.1 07:14:25 16° SE 07:14:25 16° SE 07:16:02 10° SE visible
14 May 9.6 09:11:47 16° SW 09:12:44 17° SSW 09:17:56 10° S visible
15 May 7.7 02:23:39 10° SW 02:27:47 35° SSE 02:30:25 19° ESE visible
15 May 9.1 04:26:23 10° W 04:27:43 19° WSW 04:27:43 19° WSW visible
15 May 9.9 08:40:20 15° S 08:40:20 15° S 08:42:59 10° S visible
16 May 7.9 01:48:58 10° SW 01:53:06 31° SSE 01:57:02 10° E visible
16 May 7.6 03:51:43 10° WSW 03:55:01 46° SW 03:55:01 46° SW visible
17 May 7.1 03:16:59 10° WSW 03:21:21 57° S 03:22:12 48° SE visible
18 May 7.2 02:42:11 10° WSW 02:46:38 55° S 02:49:15 23° ESE visible
18 May 9.2 04:45:26 10° W 04:46:31 17° W 04:46:31 17° W visible
19 May 7.3 02:07:19 10° WSW 02:11:55 51° S 02:16:14 10° E visible
19 May 8.1 04:10:43 10° W 04:13:29 35° WSW 04:13:29 35° WSW visible
20 May 7.2 03:35:56 10° W 03:40:18 55° S 03:40:24 55° S visible
21 May 7.2 03:01:05 10° W 03:05:35 57° S 03:07:17 34° ESE visible
22 May 7.2 02:26:10 10° W 02:30:51 59° S 02:34:08 17° ESE visible
22 May 9.0 04:29:54 10° W 04:31:23 19° WSW 04:31:23 19° WSW visible
23 May 7.3 01:51:09 10° W 01:56:08 60° S 02:00:29 10° E visible
23 May 8.1 03:55:04 10° W 03:58:12 32° SW 03:58:12 32° SW visible
